STARLINK-2033 (47650 NORAD) Tracking and Keplerian Element Data
This shows tracking and keplerian element data for the satellite.
Feedback or suggestion? Click here.
Element | Value |
Catalog | 47650 |
Name | STARLINK-2033 |
Epoch Orbit | 282 |
Epoch Day | 60.16668981 |
Epoch Year | 2021 |
RAAN | 36.8367 |
Inclination | 53.0499 |
Eccentricity | 0.0001852 |
Argument of Perigee | 98.5706 |
Mean Anonmoly | 19.8413 |
Mean Motion | 15.86608834 |
Decay Rate | 0.00053352 |
L1 | 1 47650U 21012AG 21060.16668981 .00053352 00000-0 20752-3 0 9999 |
L2 | 2 47650 53.0499 36.8367 0001852 98.5706 19.8413 15.86608834 2825 |
Live tracking and technical data element details for STARLINK-2033 (NORAD 47650). STARLINK-2033 can be tracked NOW for your location showing map with azimuth and elevation plus other details from your city location.
Track the satellite on the map from your city or location and see movement details for azimuth, elevation, latitude, longitude, range, height, and movement on the map or in text.
IsCatalogInMostPopularTable: catalog: 47650, numindb: 4
Update: records affected: 1
GetName: 47650 STARLINK-2033
Hit Count: updated at: Mon, 01 Mar 2021 16:52:32 GMT